[[{"header":{"parameterUnit":"m.s-1","parameterCategory":2,"la1":30.2991,"la2":30.254,"lo1":-89.0895,"lo2":-89.0444,"dy":0.0017,"dx":0.0017,"nx":28,"ny":28,"refTime":"2023-04-25T21:00:00:Z","depth":"0","parameterNumber":2,"parameterNumberName":"U-component_of_CURRENTS"},"data":[0,0,0,0,0,0,0,0,0,0,0,0,0,0,0,0,0,0,0,0,0,0,0,0,0,0,0,0,0,0,0,0,0,0,0,0,0,0,0,0,0,0,0,0,0,0,0,0,0,0,0,0,0,0,0,0,0,0,0.2689,0.2689,0,0.2687,0.2687,0.2686,0.2675,0.2675,0.2675,0.2675,0.267,0.267,0.2669,0,0,0,0,0,0,0,0,0,0,0,0,0,0.2655,0.2655,0.2689,0.2689,0.2689,0.2687,0.2687,0.2686,0.2675,0.2675,0.2675,0.2675,0.267,0.267,0.2669,0,0,0,0,0,0,0,0,0,0,0,0,0,0.266,0.2655,0.2689,0.2686,0.2685,0.2687,0.2687,0.2686,0.2675,0.2675,0.2675,0.2675,0.267,0.267,0.2669,0.2668,0,0,0.2669,0.2669,0,0,0,0,0,0,0,0,0.266,0.2661,0.2686,0.2686,0.2686,0.2684,0.2673,0.2681,0.2675,0.2676,0.2675,0.2675,0.2676,0.2675,0.2671,0.2668,0.2668,0.2669,0.2669,0.2668,0.2668,0,0,0,0,0,0,0,0.2659,0.2661,0.2685,0.2686,0.2686,0.2675,0.2675,0.2674,0.2674,0.2676,0.2676,0.268,0.2676,0.2671,0.2671,0.2668,0.2669,0.2668,0.2668,0.2668,0.2753,0.2755,0,0,0,0,0,0,0.2667,0.2661,0.2685,0.2685,0.2676,0.2676,0.2676,0.2682,0.2674,0.2673,0.268,0.268,0.2671,0.2671,0.267,0.2693,0.2668,0.2668,0.2668,0.275,0.2753,0.2756,0,0,0,0,0,0,0.2666,0.2669,0.2685,0.2675,0.2677,0.2677,0.2683,0.2682,0.268,0.2678,0.2677,0.268,0.2671,0.2671,0.2695,0.2692,0.2668,0.2668,0.2747,0.2751,0.2754,0.2723,0,0,0,0,0,0,0.2665,0.2669,0.2669,0.2676,0.2678,0.268,0.2683,0.2682,0.2684,0.2683,0.2677,0.2676,0.2671,0.2695,0.2695,0.2691,0.2668,0.2744,0.2749,0.2753,0.2721,0.2725,0.2729,0,0,0,0,0,0.2664,0.2658,0.2669,0.2672,0.268,0.268,0.2679,0.2677,0.2684,0.2676,0.2698,0.2676,0.2724,0.2697,0.2695,0.2692,0.2742,0.2748,0.2753,0.272,0.2725,0.2729,0,0,0,0,0,0,0.2614,0.2657,0.2669,0.2668,0.2675,0.2679,0.2668,0.268,0.2689,0.269,0.2696,0.2697,0.2718,0.2727,0.2697,0.274,0.2733,0.2739,0.2709,0.2713,0.2717,0.2667,0.2668,0,0,0,0,0,0.2613,0.2633,0.2657,0.2651,0.2657,0.2667,0.2666,0.267,0.2683,0.2686,0.269,0.2712,0.2739,0.2743,0.2759,0.2773,0.2781,0.278,0.2784,0.2786,0.2752,0.2814,0.2818,0.2773,0.2773,0.2773,0,0,0.2586,0.2614,0.2621,0.2645,0.2647,0.264,0.2665,0.2661,0.2655,0.2685,0.2678,0.2716,0.275,0.2769,0.278,0.2773,0.2806,0.2793,0.2794,0.2757,0.282,0.2823,0.2827,0.2777,0.2776,0.2776,0,0,0.2538,0.2573,0.2571,0.2584,0.2602,0.2615,0.2619,0.2632,0.2639,0.2652,0.2687,0.2731,0.2746,0.2778,0.2797,0.2837,0.2825,0.2851,0.2815,0.2877,0.288,0.2882,0.289,0.2893,0.285,0.285,0.285,0,0.2494,0.2506,0.2562,0.2557,0.2559,0.2605,0.2584,0.2599,0.262,0.2631,0.2644,0.2715,0.2747,0.2788,0.2806,0.2836,0.2853,0.2785,0.2876,0.2879,0.2882,0.289,0.2894,0.2849,0.2849,0.2849,0.2849,0,0.2448,0.2453,0.2447,0.247,0.2482,0.2471,0.2511,0.2524,0.2551,0.2572,0.2618,0.268,0.2723,0.2757,0.2782,0.283,0.2828,0.2871,0.2848,0.2883,0.2891,0.2895,0.2848,0.2848,0.2849,0.2849,0,0,0.2319,0.2402,0.2389,0.2399,0.2438,0.2438,0.2448,0.247,0.2479,0.2522,0.2535,0.2612,0.2659,0.2686,0.2749,0.2797,0.2843,0.2831,0.2835,0.2806,0.2938,0.2898,0.2899,0.2904,0.2905,0.2906,0.2929,0,0.2244,0.2248,0.2302,0.2277,0.2277,0.2339,0.2347,0.2383,0.2424,0.2453,0.2538,0.2578,0.2632,0.2665,0.2725,0.282,0.2855,0.2829,0.2934,0.2935,0.2871,0.2904,0.2814,0.2824,0.2934,0.2935,0.2935,0,0.2143,0.2177,0.216,0.2213,0.2214,0.2208,0.2243,0.226,0.2331,0.2367,0.243,0.2499,0.258,0.2631,0.2768,0.2749,0.2824,0.289,0.2894,0.286,0.2904,0.2814,0.2828,0.2714,0.2942,0.2942,0.2941,0,0.2025,0.2052,0.205,0.2062,0.2134,0.2131,0.2161,0.2222,0.2241,0.2315,0.2336,0.2446,0.2502,0.2619,0.2754,0.2768,0.289,0.2942,0.2963,0.296,0.2901,0.289,0.2785,0.3021,0.3021,0.3021,0.3021,0,0.192,0.1899,0.1997,0.1995,0.198,0.2053,0.2043,0.2091,0.2154,0.2175,0.2286,0.2321,0.2505,0.2603,0.2726,0.2842,0.2877,0.2934,0.2968,0.2889,0.2878,0.2791,0.2722,0.3022,0.3021,0.3021,0.3021,0,0.1775,0.1843,0.1837,0.1912,0.1926,0.1911,0.1967,0.1973,0.2043,0.2072,0.2093,0.2229,0.236,0.2519,0.2708,0.2793,0.2829,0.2953,0.2814,0.2831,0.2738,0.2671,0.253,0.2471,0.2971,0.297,0.2969,0,0.1705,0.1697,0.1759,0.1766,0.1792,0.1801,0.1812,0.1895,0.1915,0.2015,0.2023,0.2147,0.2237,0.2468,0.2657,0.2834,0.2766,0.2827,0.2846,0.2689,0.2642,0.2556,0.251,0.2755,0.2753,0.2751,0.2749,0,0.1581,0.1604,0.1631,0.1645,0.1653,0.167,0.17,0.1699,0.1801,0.1834,0.1905,0.198,0.2203,0.2346,0.2565,0.2689,0.2647,0.2791,0.2685,0.2486,0.2329,0.2303,0.2746,0.2732,0.2734,0.2735,0.2736,0.2737,0.1483,0.147,0.152,0.1517,0.1534,0.1544,0.1533,0.1587,0.1612,0.166,0.1766,0.1847,0.2049,0.2361,0.247,0.255,0.2542,0.2505,0.2443,0.2376,0.228,0.2647,0.2645,0.2646,0.2647,0.2648,0.2648,0,0.1367,0.1387,0.1393,0.1409,0.1392,0.144,0.1461,0.1453,0.1461,0.153,0.1584,0.1742,0.189,0.2096,0.2275,0.2211,0.2198,0.212,0.1971,0.1957,0.2338,0.229,0.2141,0.2141,0.2141,0.2141,0.2141,0.2141,0.1317,0.1295,0.1308,0.1268,0.1276,0.125,0.125,0.126,0.13,0.1333,0.1396,0.1487,0.1704,0.1804,0.1842,0.1855,0.1705,0.1603,0.1597,0.1844,0.1875,0.1904,0.1843,0.1603,0.1603,0.1194,0.119,0.1187]},{"header":{"parameterUnit":"m.s-1","parameterCategory":2,"la1":30.2991,"la2":30.254,"lo1":-89.0895,"lo2":-89.0444,"dy":0.0017,"dx":0.0017,"nx":28,"ny":28,"refTime":"2023-04-25T21:00:00:Z","depth":"0","parameterNumber":3,"parameterNumberName":"V-component_of_CURRENTS"},"data":[0,0,0,0,0,0,0,0,0,0,0,0,0,0,0,0,0,0,0,0,0,0,0,0,0,0,0,0,0,0,0,0,0,0,0,0,0,0,0,0,0,0,0,0,0,0,0,0,0,0,0,0,0,0,0,0,0,0,-0.0199,-0.0198,0,-0.0084,-0.0083,-0.0082,-0.003,-0.003,-0.003,-0.0031,0.0048,0.005,0.0052,0,0,0,0,0,0,0,0,0,0,0,0,0,-0.0245,-0.0246,-0.02,-0.0198,-0.0197,-0.0085,-0.0083,-0.0081,-0.003,-0.003,-0.003,-0.0031,0.0047,0.005,0.0053,0,0,0,0,0,0,0,0,0,0,0,0,0,-0.0186,-0.0246,-0.02,-0.0159,-0.0154,-0.0085,-0.0083,-0.0081,-0.003,-0.003,-0.003,-0.0031,0.0046,0.0049,0.0053,0.0083,0,0,0.0064,0.0065,0,0,0,0,0,0,0,0,-0.019,-0.0185,-0.0166,-0.0162,-0.0156,-0.0073,-0.007,-0.0028,-0.0029,-0.0075,-0.0031,-0.0031,0.0003,0.001,0.0036,0.0087,0.009,0.0064,0.0066,0.0068,0.0069,0,0,0,0,0,0,0,-0.0194,-0.0188,-0.0152,-0.0165,-0.0159,-0.0102,-0.0095,-0.0061,-0.0035,-0.0071,-0.0068,-0.0057,0.0006,0.0032,0.0038,0.0091,0.0064,0.0067,0.0069,0.0071,0.0197,0.0198,0,0,0,0,0,0,-0.0218,-0.0193,-0.0156,-0.0149,-0.0176,-0.0102,-0.0094,-0.0098,-0.0034,-0.0025,-0.0057,-0.0055,0.0026,0.0033,0.004,0.0094,0.0068,0.0071,0.0073,0.0196,0.0197,0.0199,0,0,0,0,0,0,-0.022,-0.0217,-0.0161,-0.0168,-0.0158,-0.0102,-0.0106,-0.0096,-0.007,-0.0023,-0.0014,-0.0043,0.0026,0.0036,0.0089,0.0096,0.0072,0.0076,0.0194,0.0196,0.0198,0.019,0,0,0,0,0,0,-0.0222,-0.0218,-0.0226,-0.0171,-0.0158,-0.0119,-0.0105,-0.0093,-0.0064,-0.0061,-0.0008,-0.0001,0.0027,0.0084,0.0092,0.01,0.0078,0.0193,0.0195,0.0197,0.0189,0.0192,0.0194,0,0,0,0,0,-0.0224,-0.023,-0.0227,-0.0222,-0.0173,-0.0118,-0.0106,-0.0065,-0.0064,-0.0046,-0.0002,-0.0003,0.0104,0.0088,0.0098,0.0107,0.0192,0.0195,0.0197,0.0188,0.0191,0.0194,0,0,0,0,0,0,-0.0249,-0.0224,-0.022,-0.0218,-0.0174,-0.011,-0.0092,-0.0068,-0.0018,-0.0019,0.0021,0.0033,0.0081,0.01,0.0081,0.0152,0.0145,0.0149,0.0134,0.0137,0.014,0.0132,0.0081,0,0,0,0,0,-0.0262,-0.0263,-0.0221,-0.0217,-0.0202,-0.015,-0.0124,-0.0096,-0.0047,-0.0026,0.0015,0.0057,0.0102,0.0123,0.0166,0.0206,0.0202,0.0217,0.0219,0.0221,0.0223,0.0225,0.0227,0.0208,0.0208,0.0208,0,0,-0.0265,-0.0255,-0.0252,-0.0222,-0.0189,-0.0151,-0.0135,-0.0097,-0.0058,-0.0026,0.0035,0.0069,0.0117,0.0169,0.019,0.0182,0.0226,0.0225,0.0226,0.0227,0.0228,0.0229,0.0231,0.021,0.021,0.0209,0,0,-0.0262,-0.0271,-0.0263,-0.0232,-0.019,-0.0154,-0.0148,-0.0085,-0.0056,0.0007,0.0039,0.008,0.0151,0.0188,0.0214,0.0255,0.0241,0.0263,0.0267,0.0268,0.0269,0.0269,0.0262,0.0262,0.0261,0.0261,0.0261,0,-0.0261,-0.0257,-0.0246,-0.0224,-0.0196,-0.016,-0.0126,-0.0085,-0.0008,0.0018,0.0023,0.0128,0.0161,0.0221,0.024,0.0258,0.0253,0.0247,0.0268,0.0269,0.027,0.0262,0.0262,0.0261,0.0261,0.0261,0.0261,0,-0.0245,-0.0237,-0.0228,-0.0195,-0.0162,-0.0129,-0.0078,-0.0041,-0.0009,0.0034,0.0097,0.0149,0.0205,0.0221,0.0247,0.0277,0.0269,0.027,0.0252,0.027,0.0262,0.0262,0.0261,0.0261,0.0261,0.0261,0,0,-0.0229,-0.022,-0.0212,-0.0196,-0.0147,-0.0111,-0.0063,-0.0001,0.0032,0.0088,0.0134,0.0206,0.0217,0.0248,0.0275,0.028,0.0281,0.0277,0.0277,0.0254,0.0274,0.0248,0.0246,0.0279,0.0279,0.0279,0.0263,0,-0.0207,-0.0184,-0.0176,-0.0125,-0.0101,-0.0066,-0.0021,0.0033,0.0078,0.013,0.0167,0.0221,0.0231,0.0254,0.0262,0.029,0.0283,0.0285,0.0274,0.0273,0.0235,0.0246,0.0258,0.0242,0.0263,0.0263,0.0263,0,-0.0175,-0.0166,-0.0135,-0.0099,-0.0084,-0.0049,0.0017,0.0062,0.0125,0.0155,0.0196,0.0228,0.0269,0.0261,0.0288,0.0287,0.0277,0.0281,0.028,0.0259,0.0248,0.0231,0.0242,0.022,0.0263,0.0263,0.0263,0,-0.0156,-0.0125,-0.0108,-0.0092,-0.0048,-0.0024,0.0007,0.007,0.0108,0.0165,0.0193,0.0239,0.0267,0.0267,0.0285,0.0283,0.0297,0.0292,0.0252,0.025,0.026,0.0258,0.0237,0.0282,0.0282,0.0282,0.0282,0,-0.0124,-0.0098,-0.0103,-0.0085,-0.0048,-0.0021,0.0029,0.0066,0.0116,0.0163,0.0199,0.0242,0.0268,0.0288,0.0284,0.0275,0.0291,0.0253,0.0245,0.0258,0.0256,0.0239,0.0209,0.0282,0.0282,0.0282,0.0282,0,-0.009,-0.0096,-0.0071,-0.005,-0.0039,-0.0012,0.0035,0.0072,0.011,0.0169,0.0186,0.0247,0.0277,0.029,0.03,0.0274,0.0248,0.0248,0.0258,0.0252,0.0184,0.0154,0.0117,0.0119,0.0199,0.0198,0.0198,0,-0.0068,-0.0062,-0.0056,-0.0044,-0.0032,0.0002,0.0032,0.0071,0.0107,0.018,0.0209,0.0253,0.0302,0.0303,0.0279,0.0253,0.023,0.0214,0.0208,0.018,0.0141,0.0132,0.0137,0.022,0.022,0.0219,0.0219,0,-0.0024,-0.0039,-0.003,-0.0023,-0.0001,0.003,0.0068,0.0095,0.0147,0.0191,0.0254,0.0295,0.031,0.0317,0.0271,0.0243,0.0195,0.0204,0.0183,0.0158,0.014,0.014,0.0223,0.0216,0.0217,0.0217,0.0217,0.0217,0.0005,0.0004,-0.0007,0.0005,0.0027,0.0058,0.0084,0.0125,0.0177,0.0246,0.0281,0.0348,0.0351,0.0309,0.0257,0.0171,0.0166,0.0142,0.0108,0.0103,0.0102,0.0168,0.0145,0.0145,0.0145,0.0145,0.0145,0,0.0036,0.0022,0.0028,0.0037,0.0053,0.0062,0.011,0.0134,0.0188,0.0261,0.0315,0.0384,0.0356,0.031,0.0205,0.0112,0.0098,0.0059,0.0064,0.0075,0.0147,0.0147,0.0114,0.0114,0.0114,0.0114,0.0114,0.0114,0.0053,0.0045,0.0032,0.0054,0.0064,0.0084,0.0107,0.0146,0.0196,0.0282,0.0349,0.0412,0.0466,0.0243,0.0101,0.0044,0.0014,-0.003,-0.0043,0.0015,0.0021,0.0027,0.0022,-0.0036,-0.0036,-0.0067,-0.0068,-0.0068]}],[{"header":{"parameterUnit":"m.s-1","parameterCategory":2,"la1":30.2991,"la2":30.254,"lo1":-89.0895,"lo2":-89.0444,"dy":0.0017,"dx":0.0017,"nx":28,"ny":28,"refTime":"2023-04-25T21:00:00:Z","depth":"2","parameterNumber":2,"parameterNumberName":"U-component_of_CURRENTS"},"data":[0,0,0,0,0,0,0,0,0,0,0,0,0,0,0,0,0,0,0,0,0,0,0,0,0,0,0,0,0,0,0,0,0,0,0,0,0,0,0,0,0,0,0,0,0,0,0,0,0,0,0,0,0,0,0,0,0,0,0.2445,0.2445,0,0.2438,0.2438,0.2438,0.2491,0.2493,0.2494,0.2496,0.2555,0.2555,0.2556,0,0,0,0,0,0,0,0,0,0,0,0,0,0.2517,0.2515,0.2445,0.2445,0.2445,0.2438,0.2438,0.2438,0.2491,0.2493,0.2495,0.2496,0.2555,0.2555,0.2556,0,0,0,0,0,0,0,0,0,0,0,0,0,0.2495,0.2515,0.2445,0.247,0.2473,0.2438,0.2438,0.2438,0.2491,0.2493,0.2495,0.2497,0.2555,0.2555,0.2556,0.2513,0,0,0.2557,0.2557,0,0,0,0,0,0,0,0,0.2496,0.2493,0.2467,0.2469,0.2471,0.2468,0.2485,0.2466,0.249,0.2484,0.2496,0.2498,0.253,0.2533,0.2526,0.2516,0.2518,0.2557,0.2557,0.2557,0.2557,0,0,0,0,0,0,0,0.2498,0.2493,0.2442,0.2466,0.2469,0.2486,0.2486,0.2481,0.2496,0.2485,0.2489,0.2487,0.2532,0.2525,0.2528,0.2519,0.2557,0.2557,0.2557,0.2557,0.262,0.2621,0,0,0,0,0,0,0.2495,0.2494,0.2443,0.2442,0.2489,0.2483,0.2482,0.2467,0.2495,0.2501,0.2485,0.2489,0.2524,0.2527,0.253,0.2585,0.2557,0.2557,0.2557,0.2619,0.262,0.2622,0,0,0,0,0,0,0.2496,0.2489,0.2443,0.2469,0.2465,0.2479,0.2461,0.2465,0.2497,0.2494,0.2502,0.2517,0.2526,0.253,0.2568,0.2584,0.2557,0.2558,0.2617,0.2619,0.2621,0.2627,0,0,0,0,0,0,0.2498,0.249,0.2492,0.2468,0.2463,0.2442,0.2459,0.2464,0.249,0.2497,0.2523,0.2529,0.2528,0.2568,0.2569,0.2584,0.2558,0.2615,0.2618,0.262,0.2625,0.2629,0.2633,0,0,0,0,0,0.25,0.2484,0.2491,0.2486,0.246,0.2442,0.2442,0.246,0.249,0.2499,0.2533,0.253,0.2587,0.2569,0.257,0.2585,0.2614,0.2617,0.262,0.2623,0.2629,0.2633,0,0,0,0,0,0,0.2518,0.2487,0.2495,0.2473,0.2471,0.2452,0.2462,0.2477,0.2507,0.253,0.2539,0.2546,0.2586,0.259,0.257,0.2616,0.2603,0.2606,0.2605,0.261,0.2614,0.2588,0.2558,0,0,0,0,0,0.252,0.2503,0.2484,0.2473,0.2473,0.2476,0.2479,0.2492,0.2505,0.2522,0.254,0.257,0.2589,0.2607,0.2619,0.2637,0.2627,0.2653,0.2657,0.266,0.2642,0.2663,0.2666,0.2633,0.2633,0.2633,0,0,0.2523,0.2506,0.2499,0.2477,0.2479,0.2469,0.2485,0.2495,0.2498,0.2522,0.2551,0.258,0.2599,0.2624,0.2642,0.2635,0.2664,0.2664,0.2666,0.2646,0.2666,0.2669,0.2672,0.2635,0.2635,0.2634,0,0,0.2511,0.251,0.2493,0.249,0.2493,0.2488,0.2499,0.2501,0.2521,0.2544,0.257,0.2613,0.2637,0.2652,0.2663,0.2696,0.2683,0.2714,0.2709,0.273,0.2732,0.2734,0.2716,0.2716,0.2717,0.2717,0.2717,0,0.2513,0.2486,0.249,0.2476,0.2472,0.25,0.2486,0.25,0.252,0.2536,0.2563,0.2619,0.2644,0.2667,0.2687,0.2701,0.27,0.2685,0.2732,0.2734,0.2735,0.2716,0.2716,0.2718,0.2718,0.2718,0.2718,0,0.2484,0.2474,0.2468,0.2453,0.2458,0.245,0.2463,0.2487,0.2523,0.2538,0.2586,0.2622,0.2656,0.268,0.2692,0.272,0.2711,0.2731,0.2711,0.2738,0.2717,0.2717,0.2719,0.2719,0.2718,0.2718,0,0,0.2401,0.2438,0.2427,0.2429,0.2442,0.243,0.2456,0.2465,0.248,0.2532,0.255,0.2608,0.2645,0.266,0.269,0.2712,0.2729,0.2728,0.2729,0.2693,0.2748,0.2656,0.2646,0.2763,0.2763,0.2764,0.2724,0,0.2359,0.2346,0.2371,0.2354,0.2342,0.2386,0.2394,0.2425,0.2465,0.2494,0.2556,0.2586,0.2632,0.2655,0.2689,0.273,0.273,0.2735,0.2741,0.274,0.2642,0.2644,0.2405,0.2343,0.2724,0.2724,0.2724,0,0.2274,0.2286,0.2272,0.23,0.2298,0.2294,0.2315,0.2334,0.2397,0.2435,0.2497,0.2548,0.2606,0.2633,0.2699,0.2705,0.2716,0.2735,0.2735,0.264,0.2647,0.2382,0.2327,0.2723,0.2723,0.2723,0.2723,0,0.2171,0.2188,0.2181,0.2186,0.2232,0.2233,0.2255,0.2309,0.2327,0.2394,0.2423,0.2507,0.2546,0.26,0.2672,0.2688,0.2719,0.2749,0.2657,0.265,0.2439,0.2412,0.275,0.275,0.275,0.275,0.275,0,0.2078,0.2054,0.2131,0.2119,0.2102,0.2161,0.2151,0.2194,0.2252,0.2272,0.2382,0.2409,0.2544,0.2596,0.2648,0.265,0.2705,0.2634,0.2633,0.2435,0.241,0.274,0.2739,0.2749,0.2749,0.2749,0.2749,0,0.1941,0.1997,0.1979,0.2037,0.2047,0.2029,0.2079,0.2084,0.2155,0.2183,0.2206,0.2337,0.2416,0.2513,0.2592,0.2597,0.2619,0.259,0.233,0.2299,0.2536,0.2536,0.2482,0.2479,0.2476,0.2473,0.2471,0,0.1864,0.185,0.1899,0.19,0.1917,0.1922,0.1928,0.2009,0.203,0.2133,0.2141,0.2234,0.2284,0.2362,0.2387,0.2414,0.2524,0.2184,0.217,0.2503,0.2508,0.2514,0.2518,0.1889,0.1882,0.1877,0.1872,0,0.1728,0.1753,0.1771,0.1778,0.1779,0.1791,0.1818,0.1819,0.1922,0.1962,0.2033,0.2077,0.2134,0.207,0.2087,0.2081,0.2173,0.2071,0.248,0.2004,0.1943,0.1949,0.1973,0.1823,0.1828,0.1832,0.1834,0.1836,0.1625,0.1612,0.1658,0.165,0.1661,0.1668,0.1655,0.1708,0.1738,0.1782,0.1877,0.1829,0.1827,0.173,0.1731,0.1726,0.1884,0.1792,0.1808,0.1831,0.178,0.1718,0.1544,0.1547,0.155,0.1552,0.1554,0,0.1511,0.1531,0.153,0.1543,0.1525,0.1565,0.1586,0.1577,0.1591,0.1609,0.1649,0.1378,0.1321,0.1344,0.1255,0.1292,0.1301,0.125,0.123,0.1276,0.1318,0.1243,0.0863,0.0862,0.0861,0.086,0,0,0.1463,0.1447,0.1463,0.1417,0.1415,0.1383,0.1382,0.1387,0.1388,0.1275,0.116,0.1233,0.1221,0.0987,0.1006,0.0929,0.1111,0.0892,0.1429,0.1448,0.1489,0.1592,0.1522,0,0,0,0,0]},{"header":{"parameterUnit":"m.s-1","parameterCategory":2,"la1":30.2991,"la2":30.254,"lo1":-89.0895,"lo2":-89.0444,"dy":0.0017,"dx":0.0017,"nx":28,"ny":28,"refTime":"2023-04-25T21:00:00:Z","depth":"2","parameterNumber":3,"parameterNumberName":"V-component_of_CURRENTS"},"data":[0,0,0,0,0,0,0,0,0,0,0,0,0,0,0,0,0,0,0,0,0,0,0,0,0,0,0,0,0,0,0,0,0,0,0,0,0,0,0,0,0,0,0,0,0,0,0,0,0,0,0,0,0,0,0,0,0,0,-0.085,-0.085,0,-0.0782,-0.078,-0.0779,-0.0661,-0.066,-0.0658,-0.0656,-0.0582,-0.0582,-0.0582,0,0,0,0,0,0,0,0,0,0,0,0,0,-0.0816,-0.0817,-0.085,-0.085,-0.085,-0.0782,-0.078,-0.0779,-0.0662,-0.066,-0.0658,-0.0656,-0.0583,-0.0582,-0.0582,0,0,0,0,0,0,0,0,0,0,0,0,0,-0.0793,-0.0817,-0.0851,-0.0787,-0.0781,-0.0782,-0.078,-0.0779,-0.0662,-0.066,-0.0657,-0.0655,-0.0583,-0.0582,-0.0582,-0.0631,0,0,-0.058,-0.058,0,0,0,0,0,0,0,0,-0.0794,-0.0793,-0.0796,-0.0791,-0.0784,-0.0732,-0.0741,-0.0731,-0.0663,-0.0702,-0.0656,-0.0653,-0.0637,-0.0632,-0.0618,-0.0628,-0.0624,-0.058,-0.058,-0.058,-0.0579,0,0,0,0,0,0,0,-0.0796,-0.0795,-0.0818,-0.0796,-0.0789,-0.074,-0.0733,-0.0738,-0.0681,-0.0698,-0.0691,-0.0692,-0.0633,-0.0619,-0.0615,-0.0623,-0.058,-0.058,-0.0579,-0.0579,-0.0633,-0.0635,0,0,0,0,0,0,-0.0821,-0.0798,-0.082,-0.0817,-0.0789,-0.0743,-0.0736,-0.0747,-0.0681,-0.067,-0.0694,-0.0687,-0.0621,-0.0616,-0.0612,-0.058,-0.058,-0.0579,-0.0579,-0.0631,-0.0633,-0.0635,0,0,0,0,0,0,-0.0821,-0.0825,-0.0823,-0.0808,-0.0805,-0.0748,-0.076,-0.0747,-0.0709,-0.0679,-0.0666,-0.0667,-0.0618,-0.0613,-0.0595,-0.0579,-0.0579,-0.0578,-0.0629,-0.0632,-0.0634,-0.0571,0,0,0,0,0,0,-0.0821,-0.0825,-0.0835,-0.0811,-0.0807,-0.0814,-0.0763,-0.0748,-0.0718,-0.0706,-0.0653,-0.0644,-0.0616,-0.0596,-0.0594,-0.0578,-0.0578,-0.0627,-0.063,-0.0633,-0.057,-0.0571,-0.0571,0,0,0,0,0,-0.082,-0.0834,-0.0836,-0.0838,-0.0825,-0.0815,-0.0808,-0.0754,-0.0719,-0.0707,-0.0667,-0.0644,-0.0616,-0.0596,-0.0594,-0.0578,-0.0625,-0.0629,-0.0633,-0.057,-0.0571,-0.0571,0,0,0,0,0,0,-0.081,-0.0824,-0.0824,-0.084,-0.0831,-0.0797,-0.0778,-0.0755,-0.0714,-0.0689,-0.0656,-0.0645,-0.0623,-0.0634,-0.0613,-0.0614,-0.0623,-0.0627,-0.0576,-0.0576,-0.0577,-0.055,-0.0578,0,0,0,0,0,-0.0825,-0.0841,-0.0844,-0.0853,-0.0849,-0.0817,-0.0803,-0.0772,-0.074,-0.0716,-0.0677,-0.0657,-0.0648,-0.0634,-0.0627,-0.0629,-0.0653,-0.0628,-0.0628,-0.0628,-0.0612,-0.0661,-0.0662,-0.0648,-0.0648,-0.0648,0,0,-0.0819,-0.0834,-0.0838,-0.0854,-0.0833,-0.0811,-0.0798,-0.0772,-0.0739,-0.0721,-0.0653,-0.065,-0.0652,-0.0633,-0.0628,-0.063,-0.0649,-0.0633,-0.0631,-0.0615,-0.0665,-0.0666,-0.0666,-0.0651,-0.065,-0.065,0,0,-0.0802,-0.0833,-0.0827,-0.0824,-0.0812,-0.0801,-0.0796,-0.0759,-0.0725,-0.0689,-0.0668,-0.066,-0.0633,-0.0628,-0.0627,-0.0642,-0.0648,-0.0649,-0.0615,-0.0663,-0.0663,-0.0664,-0.0697,-0.0701,-0.0647,-0.0647,-0.0647,0,-0.0774,-0.079,-0.0821,-0.0805,-0.0786,-0.0794,-0.0757,-0.0743,-0.0698,-0.0675,-0.0657,-0.0629,-0.0628,-0.062,-0.0612,-0.0634,-0.0659,-0.0599,-0.0658,-0.0659,-0.0661,-0.0695,-0.07,-0.0645,-0.0645,-0.0645,-0.0646,0,-0.0756,-0.075,-0.0742,-0.0731,-0.0724,-0.0698,-0.0692,-0.0667,-0.0635,-0.0616,-0.059,-0.0596,-0.0571,-0.0592,-0.059,-0.0608,-0.0621,-0.0647,-0.0642,-0.0657,-0.0694,-0.07,-0.0641,-0.0642,-0.0643,-0.0643,0,0,-0.0675,-0.0719,-0.0698,-0.0686,-0.0677,-0.0662,-0.0627,-0.06,-0.0559,-0.0547,-0.0501,-0.0508,-0.0508,-0.0511,-0.0534,-0.0581,-0.0612,-0.0605,-0.0609,-0.061,-0.0704,-0.0639,-0.064,-0.0641,-0.0642,-0.0643,-0.0724,0,-0.0617,-0.0601,-0.0626,-0.057,-0.0552,-0.0556,-0.0524,-0.0506,-0.0483,-0.0449,-0.0485,-0.0453,-0.0483,-0.0461,-0.0511,-0.0576,-0.0626,-0.0587,-0.0713,-0.0717,-0.0634,-0.0644,-0.0501,-0.0554,-0.073,-0.0731,-0.0732,0,-0.0548,-0.0555,-0.0514,-0.05,-0.0486,-0.0454,-0.0401,-0.0375,-0.0364,-0.0344,-0.0337,-0.0349,-0.0383,-0.0424,-0.0537,-0.0504,-0.059,-0.0665,-0.0671,-0.0631,-0.0663,-0.0572,-0.056,-0.0743,-0.0742,-0.0741,-0.074,0,-0.0472,-0.045,-0.0426,-0.0417,-0.0414,-0.0375,-0.0358,-0.033,-0.0306,-0.0275,-0.025,-0.0286,-0.0292,-0.0404,-0.0518,-0.0523,-0.0669,-0.0701,-0.0737,-0.0734,-0.0646,-0.0633,-0.0808,-0.0808,-0.0808,-0.0808,-0.0808,0,-0.0395,-0.0353,-0.0389,-0.0368,-0.0316,-0.0319,-0.0252,-0.0232,-0.0211,-0.0185,-0.019,-0.0189,-0.0288,-0.037,-0.0498,-0.0613,-0.065,-0.0719,-0.0747,-0.0622,-0.0606,-0.0798,-0.0796,-0.0811,-0.081,-0.081,-0.0809,0,-0.0305,-0.0328,-0.0299,-0.0297,-0.0285,-0.0243,-0.021,-0.0173,-0.0144,-0.0111,-0.0096,-0.0117,-0.0202,-0.0323,-0.0501,-0.0564,-0.0705,-0.0755,-0.0584,-0.0588,-0.0746,-0.074,-0.0779,-0.0778,-0.0776,-0.0775,-0.0774,0,-0.0264,-0.025,-0.0255,-0.0243,-0.0234,-0.0189,-0.0162,-0.0137,-0.0115,-0.0084,-0.0083,-0.0114,-0.0168,-0.0361,-0.0412,-0.0566,-0.0711,-0.0578,-0.0561,-0.0718,-0.0742,-0.0738,-0.0734,-0.0434,-0.0431,-0.0428,-0.0425,0,-0.0191,-0.0201,-0.0202,-0.0196,-0.0167,-0.0142,-0.0109,-0.0088,-0.006,-0.0045,-0.0052,-0.0086,-0.0145,-0.019,-0.0324,-0.0427,-0.0521,-0.052,-0.074,-0.045,-0.0395,-0.0418,-0.0425,-0.0398,-0.0401,-0.0403,-0.0404,-0.0405,-0.0141,-0.0143,-0.0167,-0.0153,-0.013,-0.0107,-0.0085,-0.0067,-0.0047,-0.003,-0.0061,-0.004,-0.0018,-0.0085,-0.0218,-0.0286,-0.0332,-0.0396,-0.0404,-0.0417,-0.0348,-0.0292,-0.0263,-0.0265,-0.0267,-0.0268,-0.0269,0,-0.0116,-0.0131,-0.0125,-0.0124,-0.0112,-0.0093,-0.0065,-0.0075,-0.0067,-0.0008,-0.0029,0.0089,0.0058,0.0011,0.0014,-0.0074,-0.0086,-0.0177,-0.0162,-0.0183,-0.0204,-0.0127,0.0017,0.0016,0.0016,0.0015,0,0,-0.0104,-0.0128,-0.0147,-0.013,-0.0109,-0.0091,-0.0077,-0.0095,-0.0061,-0.0002,0.0118,0.0154,0.0184,0.0214,0.0115,0.0058,-0.0081,0.0033,-0.0166,-0.0156,-0.0178,-0.0271,-0.0167,0,0,0,0,0]}],[{"header":{"parameterUnit":"m.s-1","parameterCategory":2,"la1":30.2991,"la2":30.254,"lo1":-89.0895,"lo2":-89.0444,"dy":0.0017,"dx":0.0017,"nx":28,"ny":28,"refTime":"2023-04-25T21:00:00:Z","depth":"4","parameterNumber":2,"parameterNumberName":"U-component_of_CURRENTS"},"data":[0,0,0,0,0,0,0,0,0,0,0,0,0,0,0,0,0,0,0,0,0,0,0,0,0,0,0,0,0,0,0,0,0,0,0,0,0,0,0,0,0,0,0,0,0,0,0,0,0,0,0,0,0,0,0,0,0,0,-0.0147,-0.0147,0,-0.0183,-0.0184,-0.0184,-0.0189,-0.0188,-0.0188,-0.0187,-0.0154,-0.0154,-0.0153,0,0,0,0,0,0,0,0,0,0,0,0,0,-0.013,-0.013,-0.0147,-0.0147,-0.0147,-0.0183,-0.0184,-0.0184,-0.0189,-0.0188,-0.0187,-0.0187,-0.0154,-0.0154,-0.0153,0,0,0,0,0,0,0,0,0,0,0,0,0,-0.015,-0.013,-0.0147,-0.0152,-0.0153,-0.0183,-0.0184,-0.0185,-0.0189,-0.0188,-0.0187,-0.0187,-0.0154,-0.0154,-0.0153,-0.0166,0,0,-0.0152,-0.0151,0,0,0,0,0,0,0,0,-0.0149,-0.0151,-0.0151,-0.0152,-0.0153,-0.0179,-0.0165,-0.0174,-0.0189,-0.0178,-0.0187,-0.0186,-0.0155,-0.0155,-0.0167,-0.0165,-0.0163,-0.0152,-0.0151,-0.0151,-0.0151,0,0,0,0,0,0,0,-0.0148,-0.015,-0.0163,-0.0152,-0.0153,-0.0169,-0.0171,-0.0168,-0.0171,-0.0178,-0.0178,-0.0179,-0.0155,-0.0168,-0.0166,-0.0163,-0.0152,-0.0151,-0.0151,-0.015,-0.0099,-0.0098,0,0,0,0,0,0,-0.0137,-0.0148,-0.0162,-0.0164,-0.0147,-0.017,-0.0172,-0.0173,-0.0172,-0.0171,-0.018,-0.0179,-0.0169,-0.0167,-0.0165,-0.0058,-0.0151,-0.015,-0.015,-0.01,-0.0099,-0.0097,0,0,0,0,0,0,-0.0137,-0.0138,-0.0161,-0.0156,-0.0159,-0.017,-0.0172,-0.0174,-0.0139,-0.0174,-0.0172,-0.0137,-0.0168,-0.0166,-0.0135,-0.0062,-0.015,-0.015,-0.0101,-0.0099,-0.0098,0.0077,0,0,0,0,0,0,-0.0136,-0.0138,-0.0123,-0.0155,-0.0159,-0.0122,-0.0172,-0.0175,-0.0143,-0.0142,-0.0137,-0.0137,-0.0167,-0.0136,-0.0135,-0.0062,-0.0149,-0.0102,-0.01,-0.0098,0.007,0.0084,0.0097,0,0,0,0,0,-0.0136,-0.0118,-0.0122,-0.0123,-0.0142,-0.0119,-0.012,-0.013,-0.0141,-0.0101,-0.0124,-0.0134,-0.0123,-0.0134,-0.0133,-0.0059,-0.0103,-0.0101,-0.0099,0.0064,0.0081,0.0096,0,0,0,0,0,0,-0.0107,-0.0118,-0.0123,-0.011,-0.0088,-0.0117,-0.0087,-0.0097,-0.0086,-0.0077,-0.0119,-0.0119,-0.0068,-0.0099,-0.0111,-0.0046,-0.0115,-0.0112,0.0008,0.0024,0.0038,0.0062,-0.0149,0,0,0,0,0,-0.0093,-0.0075,-0.0082,-0.0062,-0.0044,-0.0056,-0.0045,-0.0042,-0.0047,-0.004,-0.0047,-0.0062,-0.0067,-0.0047,-0.0061,-0.0014,-0.0039,0.0028,0.0042,0.0054,0.0069,0.009,0.0109,-0.009,-0.009,-0.009,0,0,-0.0082,-0.0079,-0.0072,-0.0052,-0.0039,0.0002,-0.0044,0.0002,0.004,-0.0037,0.002,-0.0009,-0.005,-0.0008,0.0014,-0.0012,0.0095,0.0057,0.0068,0.0077,0.0095,0.0115,0.0133,-0.0088,-0.0088,-0.0089,0,0,-0.0037,-0.0031,0.0005,0.0036,0.0077,0.0075,0.0106,0.0114,0.0133,0.0169,0.0117,0.0139,0.013,0.0125,0.0115,0.0196,0.0159,0.0188,0.0296,0.0318,0.0336,0.0351,0.0348,0.0361,0.0205,0.0206,0.0206,0,-0.0013,0.0017,0.0025,0.008,0.0108,0.0121,0.0176,0.0201,0.0217,0.0231,0.0217,0.0208,0.0197,0.0236,0.0262,0.0237,0.022,0.0249,0.0341,0.0355,0.0368,0.0361,0.0373,0.0214,0.0213,0.0213,0.0212,0,0.0048,0.0093,0.0129,0.0194,0.0235,0.0292,0.0325,0.0376,0.0389,0.0389,0.0439,0.0412,0.0401,0.0414,0.0367,0.0449,0.0397,0.0353,0.0313,0.0399,0.0385,0.0395,0.0227,0.0224,0.0221,0.0219,0,0,0.0055,0.0149,0.017,0.021,0.0299,0.0331,0.0425,0.0484,0.0518,0.0566,0.0599,0.0629,0.0606,0.0591,0.0553,0.0591,0.0676,0.0523,0.052,0.0543,0.0707,0.0577,0.0574,0.0649,0.0652,0.0654,0.0664,0,0.0109,0.0207,0.0248,0.0353,0.0401,0.0455,0.052,0.0582,0.0614,0.0653,0.0678,0.069,0.0676,0.0668,0.0716,0.066,0.071,0.0676,0.0599,0.0597,0.049,0.0584,0.0662,0.0671,0.0673,0.0675,0.0676,0,0.0151,0.021,0.0314,0.0401,0.043,0.0499,0.0588,0.0645,0.0716,0.0734,0.0786,0.0774,0.084,0.0801,0.0839,0.0812,0.079,0.0765,0.0763,0.0588,0.0485,0.056,0.0693,0.0692,0.0691,0.0689,0.0688,0,0.0121,0.0251,0.0328,0.0367,0.0476,0.0537,0.0593,0.0673,0.0701,0.0784,0.0792,0.0867,0.0868,0.0899,0.0824,0.0854,0.0812,0.0842,0.0718,0.0707,0.0744,0.0727,0.0896,0.0896,0.0896,0.0896,0.0896,0,0.0133,0.0198,0.0326,0.0363,0.0445,0.0527,0.0599,0.066,0.0724,0.0737,0.0823,0.0796,0.0892,0.0853,0.0841,0.0767,0.0827,0.0759,0.0715,0.0813,0.0804,0.0751,0.0734,0.0897,0.0897,0.0897,0.0896,0,0.0083,0.0175,0.0254,0.0385,0.0431,0.0484,0.0587,0.0608,0.0691,0.071,0.0736,0.0761,0.0721,0.0741,0.0734,0.0747,0.0705,0.065,0.0712,0.0665,0.0611,0.0602,0.0636,0.0632,0.0628,0.0625,0.0623,0,0.0072,0.011,0.0244,0.0288,0.0357,0.0447,0.0482,0.058,0.058,0.0631,0.0598,0.0599,0.0604,0.0488,0.0522,0.0529,0.0513,0.0547,0.0677,0.0638,0.0592,0.0589,0.0585,0.0617,0.0616,0.0615,0.0614,0,0.0026,0.0077,0.0129,0.021,0.0276,0.0319,0.0375,0.0374,0.0453,0.0542,0.0471,0.0483,0.0409,0.0405,0.037,0.0367,0.0583,0.0512,0.0525,0.0648,0.0615,0.0572,0.0573,0.0602,0.0604,0.0605,0.0606,0,-0.0015,-0.0001,0.0061,0.0134,0.0184,0.0177,0.0224,0.023,0.0255,0.0356,0.0288,0.029,0.0334,0.0304,0.0239,0.0256,0.0345,0.0442,0.046,0.0474,0.0419,0.0353,0.0243,0,0,0,0,0,-0.0045,-0.004,-0.0014,0.0054,0.0081,0.0113,0.0138,0.0175,0.0264,0.0207,0.0275,0.0202,0.0204,0.016,0.016,0.0191,0.0331,0.0198,0.0447,0.0533,0.0548,0.0498,0,0,0,0,0,0,-0.0067,-0.0052,-0.0046,-0.0044,-0.0013,-0.0004,0.0004,0.0055,0.0022,0.0131,0.0078,0.0234,0.0164,0.0195,0.0163,0.0173,0.0343,0.0231,0.0232,0.0525,0.0538,0.055,0.0503,0,0,0,0,0]},{"header":{"parameterUnit":"m.s-1","parameterCategory":2,"la1":30.2991,"la2":30.254,"lo1":-89.0895,"lo2":-89.0444,"dy":0.0017,"dx":0.0017,"nx":28,"ny":28,"refTime":"2023-04-25T21:00:00:Z","depth":"4","parameterNumber":3,"parameterNumberName":"V-component_of_CURRENTS"},"data":[0,0,0,0,0,0,0,0,0,0,0,0,0,0,0,0,0,0,0,0,0,0,0,0,0,0,0,0,0,0,0,0,0,0,0,0,0,0,0,0,0,0,0,0,0,0,0,0,0,0,0,0,0,0,0,0,0,0,0.073,0.0731,0,0.0679,0.0677,0.0675,0.0473,0.047,0.0467,0.0465,0.0094,0.0087,0.008,0,0,0,0,0,0,0,0,0,0,0,0,0,0.0614,0.0616,0.073,0.0731,0.0732,0.068,0.0677,0.0675,0.0474,0.047,0.0467,0.0463,0.0096,0.0087,0.0079,0,0,0,0,0,0,0,0,0,0,0,0,0,0.0607,0.0617,0.073,0.0639,0.0632,0.068,0.0677,0.0674,0.0475,0.047,0.0466,0.0462,0.0099,0.0088,0.0078,0.0102,0,0,0.0045,0.0041,0,0,0,0,0,0,0,0,0.0608,0.0609,0.0651,0.0646,0.0638,0.0594,0.0501,0.0473,0.0476,0.0515,0.0465,0.0459,0.0246,0.0223,0.0203,0.0085,0.0069,0.0044,0.0038,0.0033,0.003,0,0,0,0,0,0,0,0.0608,0.061,0.0692,0.0653,0.0645,0.0589,0.0581,0.0495,0.0387,0.0511,0.0501,0.0526,0.0237,0.0214,0.0192,0.0063,0.0045,0.0035,0.0029,0.0024,-0.0154,-0.0152,0,0,0,0,0,0,0.0659,0.0612,0.0694,0.0692,0.0632,0.0596,0.0586,0.0598,0.0394,0.0367,0.053,0.0517,0.0234,0.0204,0.0178,0.0064,0.0033,0.0023,0.0017,-0.0156,-0.0154,-0.0152,0,0,0,0,0,0,0.0656,0.0666,0.0696,0.0665,0.0667,0.0605,0.0618,0.06,0.054,0.0415,0.0376,0.0487,0.0229,0.0193,0.008,0.0052,0.0019,0.0009,-0.0157,-0.0155,-0.0153,-0.008,0,0,0,0,0,0,0.0653,0.0665,0.0707,0.0669,0.0672,0.0698,0.0624,0.0602,0.0574,0.0554,0.0367,0.033,0.0223,0.0097,0.007,0.0037,0.0001,-0.016,-0.0156,-0.0153,-0.0085,-0.0076,-0.0068,0,0,0,0,0,0.0649,0.0691,0.0709,0.0721,0.0725,0.07,0.0693,0.0622,0.0576,0.0548,0.0434,0.0334,0.0097,0.009,0.0057,0.0021,-0.0161,-0.0157,-0.0154,-0.0089,-0.0077,-0.0068,0,0,0,0,0,0,0.0639,0.0677,0.0693,0.0742,0.0729,0.0672,0.0681,0.0627,0.0523,0.0493,0.0347,0.0304,0.0198,0.0125,0.0121,-0.0011,-0.0045,-0.0047,0.0016,0.0025,0.0034,0.0057,-0.0008,0,0,0,0,0,0.0682,0.0735,0.0734,0.078,0.0786,0.0739,0.0732,0.0669,0.0586,0.0535,0.0401,0.0286,0.0203,0.0124,0.0034,-0.0042,-0.0062,-0.0078,-0.0069,-0.0062,-0.0059,-0.0079,-0.0072,-0.014,-0.014,-0.014,0,0,0.0706,0.0733,0.0769,0.0788,0.0782,0.0763,0.0714,0.069,0.0641,0.0513,0.0388,0.0305,0.0197,0.0105,0.0052,0.0023,-0.0046,-0.0057,-0.0051,-0.0052,-0.0074,-0.0068,-0.0062,-0.0137,-0.0138,-0.0138,0,0,0.074,0.0795,0.0833,0.0826,0.083,0.0792,0.0784,0.0706,0.0641,0.0545,0.0455,0.0375,0.0202,0.0136,0.0084,0.01,0.0011,0.0055,0.0085,0.0066,0.0071,0.0075,0.0086,0.009,0.0044,0.0044,0.0044,0,0.0769,0.0811,0.0834,0.0841,0.0846,0.0801,0.0788,0.0734,0.0608,0.0573,0.0502,0.0329,0.0227,0.0164,0.0153,0.0113,0.0093,0.0045,0.0075,0.0078,0.0081,0.0092,0.0095,0.0048,0.0047,0.0047,0.0047,0,0.0795,0.0838,0.0855,0.0862,0.0853,0.0843,0.0789,0.0735,0.0656,0.0591,0.0498,0.0386,0.0279,0.0245,0.0182,0.0156,0.0136,0.0099,0.0046,0.0092,0.0101,0.0104,0.0053,0.0052,0.0051,0.005,0,0,0.0826,0.0872,0.0884,0.0895,0.0862,0.0849,0.0802,0.0753,0.0726,0.0599,0.0557,0.0429,0.0372,0.0316,0.0244,0.0217,0.0222,0.0153,0.015,0.0159,0.0192,0.0143,0.014,0.0171,0.0171,0.0171,0.0201,0,0.0839,0.0885,0.0885,0.0893,0.0897,0.0862,0.0829,0.0773,0.0702,0.064,0.0563,0.0478,0.0399,0.0343,0.0309,0.0237,0.0226,0.0219,0.015,0.0149,0.0093,0.014,0.0172,0.0202,0.0203,0.0203,0.0203,0,0.0846,0.0878,0.0912,0.0925,0.0926,0.0899,0.0868,0.0824,0.0757,0.0699,0.0624,0.0551,0.0486,0.0417,0.0334,0.0321,0.0264,0.0222,0.0221,0.0147,0.0103,0.0139,0.0207,0.0207,0.0206,0.0206,0.0206,0,0.0846,0.089,0.0931,0.0934,0.093,0.0917,0.0883,0.0827,0.0803,0.0723,0.0698,0.0613,0.055,0.0478,0.0357,0.0338,0.0284,0.0255,0.0178,0.0176,0.0177,0.0172,0.0225,0.0225,0.0225,0.0225,0.0225,0,0.0828,0.0879,0.0936,0.0943,0.096,0.093,0.0915,0.0871,0.0825,0.0804,0.0715,0.0651,0.0553,0.0492,0.0401,0.029,0.0315,0.0199,0.0175,0.0213,0.0211,0.0181,0.0175,0.0226,0.0226,0.0225,0.0225,0,0.0806,0.0874,0.0925,0.0951,0.0955,0.095,0.0925,0.0928,0.0865,0.0838,0.0811,0.0689,0.056,0.0498,0.038,0.0336,0.0248,0.0206,0.0281,0.0259,0.0156,0.0154,0.0152,0.0151,0.0149,0.0148,0.0147,0,0.0782,0.0815,0.0919,0.0958,0.0962,0.096,0.0972,0.0929,0.0923,0.0824,0.0815,0.0686,0.0595,0.0402,0.0315,0.0211,0.0172,0.0196,0.0154,0.0169,0.0146,0.0147,0.0147,0.0145,0.0145,0.0144,0.0144,0,0.0711,0.0802,0.0853,0.0939,0.098,0.1021,0.1009,0.0962,0.0917,0.0952,0.076,0.0627,0.0491,0.0325,0.0263,0.0169,0.0223,0.0182,0.0184,0.0144,0.016,0.0139,0.0141,0.0139,0.014,0.014,0.0141,0,0.068,0.0712,0.0817,0.0876,0.099,0.0991,0.0974,0.0925,0.0891,0.0795,0.0718,0.0537,0.0475,0.0299,0.0213,0.0149,0.0122,0.0145,0.0148,0.0153,0.0127,0.0146,0.011,0,0,0,0,0,0.0613,0.0652,0.072,0.0786,0.0925,0.0971,0.0993,0.0972,0.0931,0.0811,0.0749,0.0595,0.0383,0.0255,0.0172,0.0187,0.0129,0.0096,0.0162,0.0113,0.0119,0.0081,0,0,0,0,0,0,0.0582,0.0663,0.0685,0.0734,0.0765,0.0868,0.0871,0.0838,0.0742,0.0698,0.0552,0.0611,0.0377,0.0417,0.0169,0.0153,0.0194,0.0038,0.0037,0.011,0.0115,0.0119,0.0082,0,0,0,0,0]}]]